Location: Oberkirch
(48.5323°N, 8.0787°E)
Time: 14:24:50
(UTC+00:00)

Vanguard 2 - All Passes

Search period start: 10 February 2026 00:00
Search period end: 20 February 2026 00:00
Orbit: 553 x 2897 km, 32.9° (Epoch: 9 February)

Date Brightness Start Highest point End Pass type
(mag) Time Alt. Az. Time Alt. Az. Time Alt. Az.
10 Feb - 09:17:10 10° SSW 09:19:05 12° SSE 09:21:13 10° SE daylight
10 Feb - 11:23:02 10° SW 11:26:02 15° S 11:29:43 10° SSE daylight
11 Feb - 09:28:49 10° SSW 09:30:46 13° S 09:32:57 10° SSE daylight
11 Feb - 11:35:34 10° SSW 11:37:49 12° S 11:40:22 10° SSE daylight
12 Feb - 09:40:43 10° SSW 09:42:29 12° S 09:44:26 10° SSE daylight
13 Feb - 09:52:58 10° SSW 09:54:12 11° S 09:55:32 10° SSE daylight
19 Feb - 06:50:07 10° SSW 06:50:49 10° S 06:51:31 10° S daylight
